Theta_e
300 299 299 298 298 297 296 296 295 295 295 295 295 295 296 297 299 300 301 299 301 301 302 302 303 307 312 316 320 329 329 328
300 300 299 298 298 297 296 296 295 295 294 294 295 295 295 296 298 299 300 299 300 301 301 301 302 304 308 311 314 323 330 327
301 300 299 299 298 297 297 296 295 294 294 294 294 294 295 296 297 298 299 300 299 300 301 301 302 303 307 309 311 318 329 326
301 299 299 298 297 297 296 296 295 294 294 294 294 294 295 295 296 298 299 300 299 299 300 301 301 302 304 306 308 311 325 330
300 299 298 297 297 296 296 295 295 294 294 294 294 294 294 295 296 297 299 299 300 299 300 301 301 301 302 304 308 308 313 325
300 298 297 297 296 296 295 295 294 294 294 294 294 294 294 294 295 297 299 299 300 299 300 301 299 300 301 303 308 307 310 316
299 298 297 296 296 295 295 295 294 294 293 294 294 294 294 294 295 296 297 298 299 298 300 300 300 298 300 301 306 307 308 313
299 298 297 296 296 295 295 294 294 293 293 293 293 294 294 294 295 295 295 296 297 298 299 300 300 299 299 302 305 305 306 311
299 297 297 296 295 295 295 294 293 293 294 293 293 293 293 294 295 295 295 296 297 298 299 299 299 300 299 301 305 304 306 309
299 297 297 296 295 295 295 294 293 293 293 293 293 293 293 294 295 296 296 297 297 298 298 298 298 299 298 300 302 303 306 308
299 298 297 296 295 295 295 294 294 294 293 293 293 293 294 294 296 296 295 296 297 296 297 297 298 298 298 300 301 303 305 308
299 298 297 296 295 295 295 294 294 294 293 293 293 294 294 295 296 296 296 297 297 296 297 297 297 297 298 299 301 302 303 305
298 298 297 295 295 295 294 294 294 293 293 293 293 294 295 295 295 296 296 295 295 296 296 296 296 296 297 298 299 300 300 303
298 298 297 296 295 295 294 294 293 293 293 293 293 294 295 295 295 296 295 294 295 295 295 296 296 295 296 298 298 299 299 300
299 298 297 297 296 294 294 293 293 292 293 293 293 293 295 295 295 296 295 294 294 295 295 295 296 294 293 294 297 298 298 298
298 298 297 297 296 295 294 293 292 292 292 293 293 293 293 295 294 294 294 294 294 294 295 295 295 292 291 293 295 297 297 297
298 297 297 296 296 295 294 293 292 292 292 292 292 293 294 294 294 294 294 294 294 294 294 295 294 291 290 293 295 296 296 295
299 298 297 296 296 295 294 293 292 292 292 292 291 292 294 293 293 294 294 294 293 294 294 294 294 289 289 292 293 295 294 293
299 298 297 296 295 295 294 293 292 292 292 292 291 292 293 293 293 293 294 293 292 293 293 293 294 290 288 292 293 294 294 293
Wind_Speed
17 16 15 15 18 17 14 16 18 19 23 22 21 19 18 17 15 15 16 16 17 17 18 21 19 18 14 10 9 16 23 27
20 17 14 16 17 15 16 15 16 20 23 23 21 19 20 17 15 15 15 15 16 18 17 20 20 19 16 13 11 18 24 26
18 18 17 15 17 15 12 12 13 19 19 19 19 17 19 17 13 15 13 14 14 16 16 18 19 18 16 13 13 12 23 35
17 21 15 16 18 13 10 10 13 15 16 16 19 18 16 16 16 15 15 14 12 14 15 16 18 18 16 16 14 16 7 27
17 17 16 17 15 12 8 11 12 13 14 15 15 18 17 18 17 15 16 13 9 11 16 16 17 19 17 16 15 15 9 2
13 16 16 16 16 14 6 10 11 13 11 13 15 17 18 18 16 15 14 12 9 14 16 16 18 18 19 19 17 16 11 12
14 14 14 12 11 13 9 10 12 12 12 12 14 16 17 17 16 15 22 21 15 14 16 16 16 19 20 19 18 17 15 12
11 14 12 12 12 12 12 9 12 11 11 11 13 15 15 15 15 12 19 20 14 17 15 15 16 19 20 21 18 18 17 13
11 11 11 11 11 10 10 11 10 11 10 11 13 12 13 13 14 12 13 13 15 13 12 14 14 16 19 20 18 18 18 13
9 10 8 9 9 8 9 10 11 10 11 12 13 11 10 11 12 10 11 11 11 13 13 13 13 13 15 17 18 16 18 16
8 8 6 6 6 8 7 8 9 10 10 12 11 11 10 10 11 10 11 11 11 15 14 12 13 15 15 17 17 18 16 14
6 6 5 4 4 4 5 7 9 10 11 9 8 8 9 10 9 8 8 10 11 13 13 12 14 15 15 15 17 14 14 13
6 6 5 5 3 4 4 5 7 9 8 7 7 10 9 7 10 9 9 12 13 12 12 12 13 15 16 18 18 17 18 18
6 5 5 4 4 4 4 4 6 5 6 8 7 9 8 10 9 11 10 13 13 13 12 13 13 15 16 17 20 19 16 19
5 6 5 5 4 5 4 3 4 4 4 6 5 7 9 8 8 9 9 12 12 12 12 13 12 14 16 15 16 15 13 15
5 5 6 6 4 4 4 3 3 4 4 5 7 6 6 7 9 9 8 9 11 11 11 11 13 15 17 17 15 15 16 14
6 6 5 6 6 5 4 5 3 4 4 5 5 7 5 6 8 10 9 10 10 9 10 10 12 13 14 13 15 12 13 14
7 6 6 5 5 4 6 6 4 4 4 4 4 5 5 5 7 9 10 10 10 8 8 9 10 12 13 10 11 10 11 12
7 7 6 5 5 5 6 6 6 6 6 5 4 4 5 3 6 6 7 8 9 8 8 8 7 10 12 9 7 7 9 10
Wind_Direction
293 289 291 298 299 303 310 321 333 334 328 328 330 329 326 323 325 336 339 346 341 338 338 342 349 341 321 295 286 231 216 201
313 295 272 280 283 293 299 314 324 329 328 333 329 331 325 321 322 329 334 345 343 340 337 345 351 341 332 320 306 249 209 204
315 303 299 280 282 281 279 297 328 329 330 328 320 328 321 319 319 323 331 340 345 340 340 338 343 340 338 334 323 312 219 192
327 328 321 298 296 292 288 299 325 328 325 324 324 324 324 328 328 321 334 334 346 343 342 338 341 343 344 338 331 329 223 195
333 333 324 320 313 317 303 315 317 323 325 327 327 316 327 329 315 323 322 333 343 353 343 343 341 342 345 346 338 322 315 262
334 336 333 327 318 312 327 318 313 328 320 326 323 326 325 321 320 329 323 331 28 357 342 344 348 344 342 352 349 335 323 269
342 339 330 319 320 326 344 309 329 318 325 322 319 323 323 322 327 335 342 346 351 343 342 344 342 348 345 351 352 338 318 279
337 346 346 338 337 330 329 335 324 320 320 322 320 322 321 318 338 347 335 333 336 330 342 341 341 346 348 350 358 341 319 309
340 351 346 344 341 335 340 330 321 316 323 322 321 323 324 330 335 343 325 323 322 339 338 340 339 345 348 347 357 348 336 314
350 348 359 341 339 339 346 336 324 331 333 326 322 325 324 326 327 333 328 339 337 334 340 343 344 347 350 354 357 344 351 342
351 342 355 341 333 330 341 334 328 331 327 326 330 332 333 328 327 347 352 343 343 344 356 355 355 359 360 9 1 5 358 354
341 332 343 331 319 315 330 335 333 340 338 344 345 335 332 334 344 356 357 349 348 1 6 8 5 7 7 14 8 20 15 9
334 325 324 308 315 314 333 336 334 349 340 348 352 343 346 348 355 9 6 2 5 9 19 18 13 11 12 14 15 23 20 33
316 304 307 289 299 302 318 335 347 345 347 349 8 344 357 353 355 359 13 10 10 16 21 26 22 17 12 9 22 21 17 35
313 301 310 295 292 292 287 308 337 334 337 344 20 347 343 352 347 359 13 7 8 20 23 29 32 22 16 11 21 17 27 29
301 299 310 304 273 271 256 270 317 321 327 339 349 353 342 354 358 358 4 9 14 19 23 30 30 21 14 20 16 23 28 25
289 289 290 293 275 262 241 247 269 299 313 328 338 339 9 357 344 335 355 2 7 17 24 24 30 26 18 30 30 25 24 30
268 273 277 281 270 250 250 240 232 265 283 301 323 329 354 351 326 327 348 354 358 6 17 25 29 22 28 50 41 32 34 32
251 254 260 254 244 222 237 235 233 249 264 277 299 305 322 3 306 330 342 349 353 358 5 12 22 15 26 50 49 46 40 38